一网星座-0645星 (ONEWEB-0645)

导读 | 豆包AI

ONEWEB-0645是英国OneWeb公司打造的低轨通信卫星,于2023年3月9日发射入轨,属于第二代OneWeb卫星星座。该卫星运行在1200公里近地轨道,设计寿命为7年,将服务于OneWeb的全球互联网接入网络,为全球偏远地区、基础设施薄弱区域和移动平台提供高速宽带服务,是OneWeb卫星通信网络建设的重要组成部分。

基本信息
目录编号:
55809
目录名称:
ONEWEB-0645
国际标识:
2023-029P
轨道中心:
EARTH
卫星名称:
一网星座-0645星
卫星全名:
一网星座-0645星 (ONEWEB-0645)
卫星状态:
在轨 (已飞行1101 天)
发射日期:
2023-03-09 UTC
国别 :
英国 (GB)
星等 :
--
轨道信息
数据来源 国际轨道数据
星历时间: 2026-03-14T07:10:24+0800
7小时前
查看轨道信息
半长轴: 7563.908km
偏心率: 0.0001743
轨道倾角: 87.922°
近地点辐角 96.888°
升交点赤经 323.953°
平近点角 263.245°
近地点: 1184.452km
远地点: 1187.09km
周期: 109.114分钟
每日圈数: 13.197249
详细信息
平衡模式:
三轴稳定
覆盖范围:
全球
运营商:
一网卫星公司
运营商所在国:
英国
制造商(研发单位):
一网卫星公司
制造商所在国:
英国
使用方式:
暂无
卫星简介
OneWeb卫星网络由648颗重约125公斤的微型卫星组成,运行在1200公里的轨道上。 每颗卫星都能够提供至少每秒8千兆位的吞吐量,以使用其高吞吐量的Ku频段有效载荷为家庭和移动平台提供互联网接入。该卫星仍在工作。
2D轨道图
3D轨道图
轨道高度分析图
轨道倾角分析图
轨道综合分析图
查看轨道综合分析图